EW8849 Weather Reports


time (UTC)temp
F
wind
direction
speed
knots
gust
knots
rain 1hr
in
rain 24hr
in
rain mn
in
humidity
%
barometer
mb
20200531080106 49 270 0.9 0.9 0.02 0.00 0.03 99 1014.2
20200531074604 49 113 0.0 0.0 0.02 0.00 0.02 99 1014.6
20200531073104 49 158 0.0 0.0 0.01 0.00 0.01 99 1014.2
20200531071605 49 135 2.6 2.6 0.02 0.00 0.01 99 1014.6
20200531070603 49 225 2.6 2.6 0.02 0.00 0.01 99 1014.6
20200531065104 49 338 1.7 1.7 0.01 0.00 1.08 99 1014.6
20200531063604 49 270 0.0 0.0 0.02 0.00 1.08 99 1014.6
20200531062104 49 225 0.0 0.0 0.01 0.00 1.07 99 1014.2
20200531060604 49 135 0.9 0.9 0.02 0.00 1.07 99 1014.2
20200531055104 49 203 0.0 0.0 0.02 0.00 1.07 99 1013.9
20200531053605 49 203 0.0 0.0 0.02 0.00 1.06 99 1014.2
20200531052106 49 90 0.0 0.0 0.03 0.00 1.06 99 1014.2
20200531050605 49 158 0.0 0.0 0.04 0.00 1.05 99 1014.2
20200531045104 49 225 0.9 0.9 0.03 0.00 1.04 99 1014.2
20200531043604 50 45 0.9 0.9 0.03 0.00 1.04 99 1014.2
20200531042104 50 270 0.0 0.0 0.02 0.00 1.03 99 1014.2
20200531041103 50 158 0.0 0.0 0.01 0.00 1.02 99 1014.2
20200531035604 50 225 0.9 0.9 0.00 0.00 1.01 99 1013.9
20200531034104 50 203 0.9 0.9 0.00 0.00 1.01 99 1013.5
20200531032608 50 225 2.6 2.6 0.01 0.00 1.01 99 1013.2
20200531031111 50 203 0.9 0.9 0.02 0.00 1.01 99 1012.5
20200531030106 50 135 1.7 1.7 0.03 0.00 1.01 99 1012.5
20200531025104 50 158 0.0 0.0 0.09 0.00 1.01 99 1012.2
20200531023604 50 225 1.7 1.7 0.12 0.00 1.01 99 1012.5
20200531022108 51 158 0.0 0.0 0.13 0.00 1.00 99 1011.9
20200531021104 51 90 0.0 0.0 0.13 0.00 0.98 99 1012.9
20200531015951 51 180 0.0 0.0 0.14 0.00 0.95 99 1012.9
20200531014605 51 113 1.7 1.7 0.20 0.00 0.91 99 1013.2
20200531013104 51 113 3.5 3.5 0.20 0.00 0.88 99 1013.5
20200531011607 52 203 1.7 1.7 0.22 0.00 0.84 99 1014.2
20200531010104 52 158 3.5 3.5 0.19 0.00 0.79 99 1014.2
20200531004603 52 23 1.7 1.7 0.17 0.00 0.71 99 1013.9
20200531003105 52 270 0.0 0.0 0.14 0.00 0.65 99 1013.2
20200531002104 52 158 0.0 0.0 0.17 0.00 0.63 99 1013.2
20200531000604 52 203 1.7 1.7 0.15 0.00 0.59 99 1012.9
20200530235603 52 158 0.0 0.0 0.13 0.00 0.56 99 1012.5
20200530234106 52 135 0.0 0.0 0.09 0.00 0.53 99 1011.9
20200530232604 53 248 0.0 0.0 0.01 0.00 0.45 99 1011.9
20200530231104 53 225 0.0 0.0 0.00 0.00 0.44 99 1010.8
20200530225604 53 270 0.0 0.0 0.01 0.00 0.44 99 1010.8
20200530224106 53 270 0.0 0.0 0.01 0.00 0.44 99 1010.8
20200530223104 53 23 0.0 0.0 0.02 0.00 0.44 99 1010.5
20200530221604 53 270 0.0 0.0 0.05 0.00 0.44 99 1010.5
20200530220104 53 248 0.0 0.0 0.06 0.00 0.43 99 1010.5
20200530214604 53 338 0.0 0.0 0.12 0.00 0.43 99 1010.8
20200530213604 53 23 0.0 0.0 0.11 0.00 0.42 99 1010.8
20200530212104 53 23 0.0 0.0 0.11 0.00 0.41 99 1010.5
20200530210605 53 338 0.0 0.0 0.09 0.00 0.37 99 1010.8
20200530205104 53 315 1.7 1.7 0.05 0.00 0.32 99 1010.8
20200530203604 53 270 0.0 0.0 0.04 0.00 0.30 99 1010.8
20200530202104 53 203 0.0 0.0 0.03 0.00 0.28 99 1010.5
20200530200104 53 23 0.0 0.0 0.01 0.00 0.27 99 1010.8
20200530195103 53 203 0.0 0.0 0.00 0.00 0.26 99 1011.2
20200530193604 53 158 0.0 0.0 0.00 0.00 0.26 99 1010.5
20200530192106 53 338 0.9 0.9 0.00 0.00 0.26 99 1010.2
20200530190604 53 270 0.0 0.0 0.00 0.00 0.26 99 1010.2
20200530185104 52 90 0.0 0.0 0.00 0.00 0.26 99 1009.5
20200530183605 53 270 0.9 0.9 0.01 0.00 0.26 99 1009.8
20200530182603 53 203 0.0 0.0 0.01 0.00 0.26 99 1009.8
20200530181104 53 158 1.7 1.7 0.01 0.00 0.26 99 1009.8
20200530175604 53 158 3.5 3.5 0.03 0.00 0.26 99 1009.8
20200530174604 53 270 0.0 0.0 0.04 0.00 0.26 99 1009.5
20200530173104 53 248 0.9 0.9 0.06 0.00 0.25 99 1010.2
20200530172103 52 248 0.0 0.0 0.11 0.00 0.25 99 1010.5
20200530170604 52 135 0.0 0.0 0.16 0.00 0.25 99 1010.8
20200530165104 51 293 0.0 0.0 0.16 0.00 0.23 99 1011.5
20200530164104 51 0 0.0 0.0 0.15 0.00 0.20 99 1011.5
20200530162604 52 248 0.0 0.0 0.12 0.00 0.13 99 1012.2
20200530161603 52 315 0.0 0.0 0.10 0.00 0.10 99 1012.5
20200530160104 52 158 0.0 0.0 0.08 0.00 0.08 99 1013.2
20200530154604 52 135 0.0 0.0 0.03 0.00 0.03 97 1011.9
20200530153603 52 23 0.0 0.0 0.03 0.00 0.03 95 1012.5
20200530152105 53 338 0.0 0.0 0.00 0.00 0.00 92 1012.5
20200530150604 53 248 1.7 1.7 0.00 0.00 0.00 92 1011.5
20200530145604 54 68 0.0 0.0 0.00 0.00 0.00 89 1010.8
20200530144104 55 135 0.0 0.0 0.00 0.00 0.00 80 1010.2
20200530142604 54 203 0.0 0.0 0.00 0.00 0.00 80 1009.8
20200530141104 54 90 0.0 0.0 0.00 0.00 0.00 80 1010.2
20200530135604 54 68 0.0 0.0 0.00 0.00 0.00 81 1010.2
20200530134104 54 68 0.0 0.0 0.00 0.00 0.00 82 1010.5
20200530132605 53 90 0.0 0.0 0.00 0.00 0.00 80 1010.5
20200530131106 53 113 0.0 0.0 0.00 0.00 0.00 79 1010.5
20200530125604 53 90 0.0 0.0 0.00 0.00 0.00 79 1010.5
20200530124604 53 135 0.0 0.0 0.00 0.00 0.00 78 1010.8
20200530123105 53 68 0.0 0.0 0.00 0.00 0.00 79 1010.8
20200530121604 53 180 0.0 0.0 0.00 0.00 0.00 77 1010.5
20200530120603 53 270 0.0 0.0 0.00 0.00 0.00 78 1010.5
20200530115104 53 180 0.9 0.9 0.00 0.00 0.00 78 1009.5
20200530113604 53 23 0.0 0.0 0.00 0.00 0.00 75 1010.5
20200530112104 54 158 0.0 0.0 0.00 0.00 0.00 74 1010.5
20200530110604 54 113 0.0 0.0 0.00 0.00 0.00 72 1010.5
20200530105104 55 338 0.0 0.0 0.00 0.00 0.00 71 1010.5
20200530103604 55 270 0.0 0.0 0.00 0.00 0.00 71 1010.2
20200530102104 55 113 0.0 0.0 0.00 0.00 0.00 70 1009.8
20200530101103 55 293 0.0 0.0 0.00 0.00 0.00 70 1009.8
20200530095604 54 225 0.0 0.0 0.00 0.00 0.00 70 1009.8
20200530094604 54 68 0.0 0.0 0.00 0.00 0.00 70 1010.2
20200530093104 54 45 0.0 0.0 0.00 0.00 0.00 70 1010.2
20200530092103 54 180 0.0 0.0 0.00 0.00 0.00 71 1010.2
20200530090604 54 315 0.0 0.0 0.00 0.00 0.00 73 1010.5
20200530085603 54 180 0.0 0.0 0.00 0.00 0.00 71 1010.5
20200530084104 54 45 0.0 0.0 0.00 0.00 0.00 71 1010.5
20200530083104 54 68 0.0 0.0 0.00 0.00 0.00 72 1010.8